contact:dominique.lefevre@mio.osupytheas.fr, maurice.libes@osupytheas.fr, didier.mallarino@osupytheas.fr
Project:EMSO http://www.emso-fr.org/EMSO-France
Depth: 2436.0 m
Title:EMSO Ligure Ouest : Data MII capteur MICROCAT
DateTime_Computer,Latitude,Longitude,Temperature,Conductivity,Pressure,DateTime_Instrument
DateTime_Computer,Latitude,Longitude,degC,S m-1,dbar,DateTime_Instrument
2019-07-26T00:01:11Z,42.805,6.029,13.2954,4.59953,2469.923,2019-7-26T02:01:30Z
2019-07-26T00:04:14Z,42.805,6.029,13.2954,4.59953,2469.96,2019-7-26T02:04:33Z
2019-07-26T00:07:18Z,42.805,6.029,13.2954,4.59953,2469.923,2019-7-26T02:07:37Z
2019-07-26T00:10:21Z,42.805,6.029,13.2954,4.59953,2469.923,2019-7-26T02:10:40Z
2019-07-26T00:13:24Z,42.805,6.029,13.2953,4.59954,2469.97,2019-7-26T02:13:43Z
2019-07-26T00:16:28Z,42.805,6.029,13.2953,4.59953,2469.97,2019-7-26T02:16:47Z
2019-07-26T00:19:31Z,42.805,6.029,13.2948,4.59954,2469.97,2019-7-26T02:19:50Z
2019-07-26T00:22:34Z,42.805,6.029,13.2957,4.59954,2469.993,2019-7-26T02:22:53Z
2019-07-26T00:25:37Z,42.805,6.029,13.2953,4.59953,2469.947,2019-7-26T02:25:57Z
2019-07-26T00:28:41Z,42.805,6.029,13.2953,4.59954,2469.97,2019-7-26T02:29:00Z
2019-07-26T00:31:44Z,42.805,6.029,13.2955,4.59954,2469.947,2019-7-26T02:32:03Z
2019-07-26T00:34:47Z,42.805,6.029,13.2953,4.59953,2469.923,2019-7-26T02:35:06Z
2019-07-26T00:37:50Z,42.805,6.029,13.2953,4.59954,2469.923,2019-7-26T02:38:10Z
2019-07-26T00:40:54Z,42.805,6.029,13.2948,4.59952,2469.96,2019-7-26T02:41:13Z
2019-07-26T00:43:57Z,42.805,6.029,13.2950,4.59953,2469.96,2019-7-26T02:44:16Z
2019-07-26T00:47:00Z,42.805,6.029,13.2956,4.59954,2469.923,2019-7-26T02:47:19Z
2019-07-26T00:50:04Z,42.805,6.029,13.2954,4.59952,2469.947,2019-7-26T02:50:23Z
2019-07-26T00:53:07Z,42.805,6.029,13.2957,4.59951,2469.923,2019-7-26T02:53:26Z
2019-07-26T00:56:10Z,42.805,6.029,13.2957,4.59954,2469.956,2019-7-26T02:56:29Z
2019-07-26T00:59:14Z,42.805,6.029,13.2958,4.59954,2469.947,2019-7-26T02:59:33Z
2019-07-26T01:02:17Z,42.805,6.029,13.2956,4.59954,2469.937,2019-7-26T03:02:36Z
2019-07-26T01:05:20Z,42.805,6.029,13.2953,4.59952,2469.96,2019-7-26T03:05:39Z
2019-07-26T01:08:23Z,42.805,6.029,13.2957,4.59953,2469.947,2019-7-26T03:08:42Z
2019-07-26T01:11:26Z,42.805,6.029,13.2953,4.59954,2469.937,2019-7-26T03:11:46Z
2019-07-26T01:14:30Z,42.805,6.029,13.2957,4.59953,2469.923,2019-7-26T03:14:49Z
2019-07-26T01:17:33Z,42.805,6.029,13.2957,4.59952,2469.947,2019-7-26T03:17:52Z
2019-07-26T01:20:36Z,42.805,6.029,13.2953,4.59953,2469.947,2019-7-26T03:20:56Z
2019-07-26T01:23:40Z,42.805,6.029,13.2956,4.59952,2469.947,2019-7-26T03:23:59Z
2019-07-26T01:26:43Z,42.805,6.029,13.2957,4.59952,2469.956,2019-7-26T03:27:02Z
2019-07-26T01:29:46Z,42.805,6.029,13.2954,4.59954,2469.96,2019-7-26T03:30:05Z
2019-07-26T01:32:49Z,42.805,6.029,13.2956,4.59953,2469.947,2019-7-26T03:33:09Z
2019-07-26T01:35:53Z,42.805,6.029,13.2958,4.59952,2469.984,2019-7-26T03:36:12Z
2019-07-26T01:38:56Z,42.805,6.029,13.2955,4.59954,2469.97,2019-7-26T03:39:15Z
2019-07-26T01:41:59Z,42.805,6.029,13.2952,4.59953,2469.923,2019-7-26T03:42:18Z
2019-07-26T01:45:02Z,42.805,6.029,13.2953,4.59953,2469.984,2019-7-26T03:45:21Z
2019-07-26T01:48:05Z,42.805,6.029,13.2953,4.59954,2469.947,2019-7-26T03:48:25Z
2019-07-26T01:51:09Z,42.805,6.029,13.2955,4.59952,2469.97,2019-7-26T03:51:28Z
2019-07-26T01:54:12Z,42.805,6.029,13.2952,4.59954,2469.947,2019-7-26T03:54:31Z
2019-07-26T01:57:15Z,42.805,6.029,13.2957,4.59953,2469.96,2019-7-26T03:57:34Z
2019-07-26T02:00:18Z,42.805,6.029,13.2953,4.59951,2469.923,2019-7-26T04:00:38Z
2019-07-26T02:03:22Z,42.805,6.029,13.2953,4.59952,2469.947,2019-7-26T04:03:41Z
2019-07-26T02:06:25Z,42.805,6.029,13.2952,4.59952,2469.97,2019-7-26T04:06:44Z
2019-07-26T02:09:28Z,42.805,6.029,13.2956,4.59953,2469.96,2019-7-26T04:09:47Z
2019-07-26T02:12:31Z,42.805,6.029,13.2954,4.59953,2469.984,2019-7-26T04:12:50Z
2019-07-26T02:15:34Z,42.805,6.029,13.2956,4.59952,2469.947,2019-7-26T04:15:54Z
2019-07-26T02:18:38Z,42.805,6.029,13.2956,4.59952,2469.947,2019-7-26T04:18:57Z
2019-07-26T02:21:41Z,42.805,6.029,13.2952,4.59954,2469.947,2019-7-26T04:22:00Z
2019-07-26T02:24:44Z,42.805,6.029,13.2957,4.59952,2469.947,2019-7-26T04:25:03Z
2019-07-26T02:27:47Z,42.805,6.029,13.2957,4.59953,2469.947,2019-7-26T04:28:06Z
2019-07-26T02:30:50Z,42.805,6.029,13.2953,4.59952,2469.947,2019-7-26T04:31:09Z
2019-07-26T02:33:54Z,42.805,6.029,13.2956,4.59952,2469.923,2019-7-26T04:34:13Z
2019-07-26T02:36:57Z,42.805,6.029,13.2955,4.59953,2469.923,2019-7-26T04:37:16Z
2019-07-26T02:40:00Z,42.805,6.029,13.2956,4.59953,2469.947,2019-7-26T04:40:19Z
2019-07-26T02:43:03Z,42.805,6.029,13.2955,4.59953,2469.923,2019-7-26T04:43:22Z
2019-07-26T02:46:06Z,42.805,6.029,13.2952,4.59951,2469.947,2019-7-26T04:46:25Z
2019-07-26T02:49:09Z,42.805,6.029,13.2955,4.59953,2469.937,2019-7-26T04:49:29Z
2019-07-26T02:52:13Z,42.805,6.029,13.2957,4.59952,2469.923,2019-7-26T04:52:32Z
2019-07-26T02:55:16Z,42.805,6.029,13.2953,4.59953,2469.923,2019-7-26T04:55:35Z
2019-07-26T02:58:19Z,42.805,6.029,13.2951,4.59953,2469.923,2019-7-26T04:58:38Z
2019-07-26T03:01:22Z,42.805,6.029,13.2953,4.59952,2469.923,2019-7-26T05:01:41Z
2019-07-26T03:04:25Z,42.805,6.029,13.2953,4.59953,2469.947,2019-7-26T05:04:45Z
2019-07-26T03:07:29Z,42.805,6.029,13.2953,4.59951,2469.923,2019-7-26T05:07:48Z
2019-07-26T03:10:32Z,42.805,6.029,13.2952,4.59952,2469.923,2019-7-26T05:10:51Z
2019-07-26T03:13:35Z,42.805,6.029,13.2953,4.59952,2469.9,2019-7-26T05:13:54Z
2019-07-26T03:16:38Z,42.805,6.029,13.2953,4.59952,2469.923,2019-7-26T05:16:57Z
2019-07-26T03:19:41Z,42.805,6.029,13.2953,4.59952,2469.914,2019-7-26T05:20:00Z
2019-07-26T03:22:44Z,42.805,6.029,13.2953,4.59952,2469.937,2019-7-26T05:23:04Z
2019-07-26T03:25:48Z,42.805,6.029,13.2953,4.59951,2469.914,2019-7-26T05:26:07Z
2019-07-26T03:28:51Z,42.805,6.029,13.2948,4.59952,2469.923,2019-7-26T05:29:10Z
2019-07-26T03:31:54Z,42.805,6.029,13.2949,4.59953,2469.947,2019-7-26T05:32:13Z
2019-07-26T03:34:57Z,42.805,6.029,13.2954,4.59951,2469.923,2019-7-26T05:35:16Z
2019-07-26T03:38:00Z,42.805,6.029,13.2953,4.59951,2469.923,2019-7-26T05:38:20Z
2019-07-26T03:41:04Z,42.805,6.029,13.2955,4.59951,2469.923,2019-7-26T05:41:23Z
2019-07-26T03:44:07Z,42.805,6.029,13.2954,4.59951,2469.923,2019-7-26T05:44:26Z
2019-07-26T03:47:10Z,42.805,6.029,13.2952,4.59951,2469.937,2019-7-26T05:47:29Z
2019-07-26T03:50:13Z,42.805,6.029,13.2952,4.59952,2469.947,2019-7-26T05:50:32Z
2019-07-26T03:53:16Z,42.805,6.029,13.2958,4.59953,2469.914,2019-7-26T05:53:36Z
2019-07-26T03:56:20Z,42.805,6.029,13.2955,4.59953,2469.923,2019-7-26T05:56:39Z
2019-07-26T03:59:23Z,42.805,6.029,13.2954,4.59952,2469.923,2019-7-26T05:59:42Z
2019-07-26T04:02:26Z,42.805,6.029,13.2954,4.59952,2469.923,2019-7-26T06:02:45Z
2019-07-26T04:05:29Z,42.805,6.029,13.2957,4.59951,2469.923,2019-7-26T06:05:48Z
2019-07-26T04:08:32Z,42.805,6.029,13.2951,4.59951,2469.947,2019-7-26T06:08:52Z
2019-07-26T04:11:36Z,42.805,6.029,13.2952,4.59951,2469.947,2019-7-26T06:11:55Z
2019-07-26T04:14:39Z,42.805,6.029,13.2954,4.59951,2469.923,2019-7-26T06:14:58Z
2019-07-26T04:17:42Z,42.805,6.029,13.2954,4.59951,2469.923,2019-7-26T06:18:01Z
2019-07-26T04:20:45Z,42.805,6.029,13.2954,4.59952,2469.89,2019-7-26T06:21:04Z
2019-07-26T04:23:48Z,42.805,6.029,13.2954,4.59951,2469.9,2019-7-26T06:24:08Z
2019-07-26T04:26:52Z,42.805,6.029,13.2953,4.59952,2469.9,2019-7-26T06:27:11Z
2019-07-26T04:29:55Z,42.805,6.029,13.2953,4.59952,2469.9,2019-7-26T06:30:14Z
2019-07-26T04:32:58Z,42.805,6.029,13.2953,4.59952,2469.914,2019-7-26T06:33:17Z
2019-07-26T04:36:01Z,42.805,6.029,13.2952,4.59951,2469.914,2019-7-26T06:36:20Z
2019-07-26T04:39:04Z,42.805,6.029,13.2957,4.59953,2469.9,2019-7-26T06:39:23Z
2019-07-26T04:42:08Z,42.805,6.029,13.2957,4.59952,2469.914,2019-7-26T06:42:27Z
2019-07-26T04:45:11Z,42.805,6.029,13.2953,4.59951,2469.9,2019-7-26T06:45:30Z
2019-07-26T04:48:14Z,42.805,6.029,13.2952,4.59951,2469.914,2019-7-26T06:48:33Z
2019-07-26T04:51:17Z,42.805,6.029,13.2952,4.59951,2469.923,2019-7-26T06:51:36Z
2019-07-26T04:54:20Z,42.805,6.029,13.2955,4.59953,2469.9,2019-7-26T06:54:39Z
2019-07-26T04:57:24Z,42.805,6.029,13.2953,4.59952,2469.9,2019-7-26T06:57:43Z
2019-07-26T05:00:27Z,42.805,6.029,13.2954,4.59951,2469.876,2019-7-26T07:00:46Z
2019-07-26T05:03:30Z,42.805,6.029,13.2953,4.59950,2469.89,2019-7-26T07:03:49Z
2019-07-26T05:06:33Z,42.805,6.029,13.2958,4.59951,2469.9,2019-7-26T07:06:52Z
2019-07-26T05:09:37Z,42.805,6.029,13.2949,4.59950,2469.876,2019-7-26T07:09:56Z
2019-07-26T05:12:40Z,42.805,6.029,13.2952,4.59951,2469.853,2019-7-26T07:12:59Z
2019-07-26T05:15:43Z,42.805,6.029,13.2957,4.59951,2469.876,2019-7-26T07:16:02Z
2019-07-26T05:18:46Z,42.805,6.029,13.2953,4.59951,2469.876,2019-7-26T07:19:05Z
2019-07-26T05:21:49Z,42.805,6.029,13.2949,4.59952,2469.914,2019-7-26T07:22:08Z
2019-07-26T05:24:52Z,42.805,6.029,13.2957,4.59951,2469.853,2019-7-26T07:25:12Z
2019-07-26T05:27:56Z,42.805,6.029,13.2952,4.59952,2469.876,2019-7-26T07:28:15Z
2019-07-26T05:30:59Z,42.805,6.029,13.2952,4.59951,2469.876,2019-7-26T07:31:18Z
2019-07-26T05:34:02Z,42.805,6.029,13.2953,4.59951,2469.876,2019-7-26T07:34:21Z
2019-07-26T05:37:05Z,42.805,6.029,13.2953,4.59952,2469.876,2019-7-26T07:37:24Z
2019-07-26T05:40:08Z,42.805,6.029,13.2957,4.59951,2469.867,2019-7-26T07:40:28Z
2019-07-26T05:43:12Z,42.805,6.029,13.2956,4.59951,2469.876,2019-7-26T07:43:31Z
2019-07-26T05:46:15Z,42.805,6.029,13.2955,4.59952,2469.876,2019-7-26T07:46:34Z
2019-07-26T05:49:18Z,42.805,6.029,13.2950,4.59953,2469.89,2019-7-26T07:49:37Z
2019-07-26T05:52:21Z,42.805,6.029,13.2954,4.59952,2469.914,2019-7-26T07:52:40Z
2019-07-26T05:55:24Z,42.805,6.029,13.2952,4.59951,2469.867,2019-7-26T07:55:44Z
2019-07-26T05:58:28Z,42.805,6.029,13.2953,4.59951,2469.89,2019-7-26T07:58:47Z
2019-07-26T06:01:31Z,42.805,6.029,13.2953,4.59951,2469.867,2019-7-26T08:01:50Z
2019-07-26T06:04:34Z,42.805,6.029,13.2953,4.59951,2469.867,2019-7-26T08:04:53Z
2019-07-26T06:07:37Z,42.805,6.029,13.2956,4.59951,2469.876,2019-7-26T08:07:56Z
2019-07-26T06:10:40Z,42.805,6.029,13.2955,4.59951,2469.867,2019-7-26T08:10:59Z
2019-07-26T06:13:43Z,42.805,6.029,13.2953,4.59950,2469.867,2019-7-26T08:14:03Z
2019-07-26T06:16:47Z,42.805,6.029,13.2951,4.59951,2469.853,2019-7-26T08:17:06Z
2019-07-26T06:19:50Z,42.805,6.029,13.2952,4.59951,2469.876,2019-7-26T08:20:09Z
2019-07-26T06:22:53Z,42.805,6.029,13.2951,4.59951,2469.853,2019-7-26T08:23:12Z
2019-07-26T06:25:56Z,42.805,6.029,13.2956,4.59953,2469.89,2019-7-26T08:26:15Z
2019-07-26T06:28:59Z,42.805,6.029,13.2952,4.59951,2469.83,2019-7-26T08:29:19Z
2019-07-26T06:32:03Z,42.805,6.029,13.2953,4.59952,2469.844,2019-7-26T08:32:22Z
2019-07-26T06:35:06Z,42.805,6.029,13.2949,4.59951,2469.83,2019-7-26T08:35:25Z
2019-07-26T06:38:09Z,42.805,6.029,13.2955,4.59951,2469.853,2019-7-26T08:38:28Z
2019-07-26T06:41:12Z,42.805,6.029,13.2950,4.59952,2469.89,2019-7-26T08:41:31Z
2019-07-26T06:44:15Z,42.805,6.029,13.2958,4.59950,2469.853,2019-7-26T08:44:34Z
2019-07-26T06:47:18Z,42.805,6.029,13.2957,4.59951,2469.853,2019-7-26T08:47:38Z
2019-07-26T06:50:22Z,42.805,6.029,13.2952,4.59950,2469.867,2019-7-26T08:50:41Z
2019-07-26T06:53:25Z,42.805,6.029,13.2951,4.59951,2469.867,2019-7-26T08:53:44Z
2019-07-26T06:56:28Z,42.805,6.029,13.2952,4.59950,2469.83,2019-7-26T08:56:47Z
2019-07-26T06:59:31Z,42.805,6.029,13.2954,4.59951,2469.853,2019-7-26T08:59:50Z
2019-07-26T07:02:34Z,42.805,6.029,13.2955,4.59950,2469.853,2019-7-26T09:02:54Z
2019-07-26T07:05:38Z,42.805,6.029,13.2956,4.59951,2469.853,2019-7-26T09:05:57Z
2019-07-26T07:08:41Z,42.805,6.029,13.2953,4.59951,2469.83,2019-7-26T09:09:00Z
2019-07-26T07:11:44Z,42.805,6.029,13.2954,4.59951,2469.853,2019-7-26T09:12:03Z
2019-07-26T07:14:47Z,42.805,6.029,13.2952,4.59951,2469.853,2019-7-26T09:15:06Z
2019-07-26T07:17:50Z,42.805,6.029,13.2950,4.59951,2469.844,2019-7-26T09:18:09Z
2019-07-26T07:20:54Z,42.805,6.029,13.2953,4.59950,2469.821,2019-7-26T09:21:13Z
2019-07-26T07:23:57Z,42.805,6.029,13.2954,4.59950,2469.853,2019-7-26T09:24:16Z
2019-07-26T07:27:00Z,42.805,6.029,13.2954,4.59950,2469.867,2019-7-26T09:27:19Z
2019-07-26T07:30:03Z,42.805,6.029,13.2952,4.59951,2469.83,2019-7-26T09:30:22Z
2019-07-26T07:33:06Z,42.805,6.029,13.2953,4.59951,2469.853,2019-7-26T09:33:25Z
2019-07-26T07:36:09Z,42.805,6.029,13.2953,4.59951,2469.83,2019-7-26T09:36:29Z
2019-07-26T07:39:13Z,42.805,6.029,13.2950,4.59950,2469.83,2019-7-26T09:39:32Z
2019-07-26T07:42:16Z,42.805,6.029,13.2953,4.59951,2469.853,2019-7-26T09:42:35Z
2019-07-26T07:45:19Z,42.805,6.029,13.2950,4.59951,2469.844,2019-7-26T09:45:38Z
2019-07-26T07:48:22Z,42.805,6.029,13.2950,4.59951,2469.844,2019-7-26T09:48:41Z
2019-07-26T07:51:25Z,42.805,6.029,13.2950,4.59951,2469.844,2019-7-26T09:51:44Z
2019-07-26T07:54:28Z,42.805,6.029,13.2953,4.59950,2469.844,2019-7-26T09:54:48Z
2019-07-26T07:57:32Z,42.805,6.029,13.2951,4.59951,2469.83,2019-7-26T09:57:51Z
2019-07-26T08:00:35Z,42.805,6.029,13.2954,4.59951,2469.867,2019-7-26T10:00:54Z
2019-07-26T08:03:38Z,42.805,6.029,13.2953,4.59951,2469.806,2019-7-26T10:03:57Z
2019-07-26T08:06:41Z,42.805,6.029,13.2954,4.59952,2469.83,2019-7-26T10:07:00Z
2019-07-26T08:09:44Z,42.805,6.029,13.2954,4.59951,2469.83,2019-7-26T10:10:04Z
2019-07-26T08:12:48Z,42.805,6.029,13.2956,4.59950,2469.867,2019-7-26T10:13:07Z
2019-07-26T08:15:51Z,42.805,6.029,13.2951,4.59950,2469.821,2019-7-26T10:16:10Z
2019-07-26T08:18:54Z,42.805,6.029,13.2957,4.59951,2469.83,2019-7-26T10:19:13Z
2019-07-26T08:21:57Z,42.805,6.029,13.2953,4.59949,2469.83,2019-7-26T10:22:16Z
2019-07-26T08:25:00Z,42.805,6.029,13.2955,4.59951,2469.83,2019-7-26T10:25:19Z
2019-07-26T08:28:03Z,42.805,6.029,13.2957,4.59950,2469.844,2019-7-26T10:28:23Z
2019-07-26T08:31:07Z,42.805,6.029,13.2949,4.59951,2469.844,2019-7-26T10:31:26Z
2019-07-26T08:34:10Z,42.805,6.029,13.2954,4.59952,2469.821,2019-7-26T10:34:29Z
2019-07-26T08:37:13Z,42.805,6.029,13.2956,4.59950,2469.806,2019-7-26T10:37:32Z
2019-07-26T08:40:16Z,42.805,6.029,13.2953,4.59950,2469.83,2019-7-26T10:40:35Z
2019-07-26T08:43:19Z,42.805,6.029,13.2951,4.59950,2469.806,2019-7-26T10:43:39Z
2019-07-26T08:46:23Z,42.805,6.029,13.2953,4.59950,2469.821,2019-7-26T10:46:42Z
2019-07-26T08:49:26Z,42.805,6.029,13.2948,4.59951,2469.806,2019-7-26T10:49:45Z
2019-07-26T08:52:29Z,42.805,6.029,13.2951,4.59951,2469.821,2019-7-26T10:52:48Z
2019-07-26T08:55:32Z,42.805,6.029,13.2952,4.59950,2469.844,2019-7-26T10:55:51Z
2019-07-26T08:58:35Z,42.805,6.029,13.2953,4.59951,2469.844,2019-7-26T10:58:55Z
2019-07-26T09:01:39Z,42.805,6.029,13.2952,4.59950,2469.844,2019-7-26T11:01:58Z
2019-07-26T09:04:42Z,42.805,6.029,13.2950,4.59950,2469.83,2019-7-26T11:05:01Z
2019-07-26T09:07:45Z,42.805,6.029,13.2952,4.59951,2469.844,2019-7-26T11:08:04Z
2019-07-26T09:10:48Z,42.805,6.029,13.2953,4.59950,2469.806,2019-7-26T11:11:07Z
2019-07-26T09:13:51Z,42.805,6.029,13.2953,4.59950,2469.821,2019-7-26T11:14:11Z
2019-07-26T09:16:55Z,42.805,6.029,13.2954,4.59950,2469.844,2019-7-26T11:17:14Z
2019-07-26T09:19:58Z,42.805,6.029,13.2952,4.59950,2469.783,2019-7-26T11:20:17Z
2019-07-26T09:23:01Z,42.805,6.029,13.2953,4.59950,2469.821,2019-7-26T11:23:20Z
2019-07-26T09:26:04Z,42.805,6.029,13.2953,4.59950,2469.806,2019-7-26T11:26:23Z
2019-07-26T09:29:07Z,42.805,6.029,13.2955,4.59950,2469.853,2019-7-26T11:29:26Z
2019-07-26T09:32:11Z,42.805,6.029,13.2952,4.59951,2469.821,2019-7-26T11:32:30Z
2019-07-26T09:35:14Z,42.805,6.029,13.2952,4.59952,2469.83,2019-7-26T11:35:33Z
2019-07-26T09:38:17Z,42.805,6.029,13.2951,4.59951,2469.783,2019-7-26T11:38:36Z
2019-07-26T09:41:20Z,42.805,6.029,13.2957,4.59951,2469.83,2019-7-26T11:41:39Z
2019-07-26T09:44:23Z,42.805,6.029,13.2953,4.59951,2469.83,2019-7-26T11:44:42Z
2019-07-26T09:47:26Z,42.805,6.029,13.2956,4.59951,2469.806,2019-7-26T11:47:46Z
2019-07-26T09:50:30Z,42.805,6.029,13.2952,4.59951,2469.821,2019-7-26T11:50:49Z
2019-07-26T09:53:33Z,42.805,6.029,13.2956,4.59951,2469.844,2019-7-26T11:53:52Z
2019-07-26T09:56:36Z,42.805,6.029,13.2954,4.59950,2469.816,2019-7-26T11:56:55Z
2019-07-26T09:59:39Z,42.805,6.029,13.2951,4.59950,2469.821,2019-7-26T11:59:58Z
2019-07-26T10:02:42Z,42.805,6.029,13.2953,4.59951,2469.844,2019-7-26T12:03:02Z
2019-07-26T10:05:46Z,42.805,6.029,13.2952,4.59951,2469.83,2019-7-26T12:06:05Z
2019-07-26T10:08:49Z,42.805,6.029,13.2953,4.59951,2469.821,2019-7-26T12:09:08Z
2019-07-26T10:11:52Z,42.805,6.029,13.2953,4.59951,2469.821,2019-7-26T12:12:11Z
2019-07-26T10:14:55Z,42.805,6.029,13.2953,4.59951,2469.853,2019-7-26T12:15:14Z
2019-07-26T10:17:58Z,42.805,6.029,13.2956,4.59951,2469.806,2019-7-26T12:18:17Z
2019-07-26T10:21:01Z,42.805,6.029,13.2955,4.59951,2469.83,2019-7-26T12:21:21Z
2019-07-26T10:24:05Z,42.805,6.029,13.2954,4.59951,2469.844,2019-7-26T12:24:24Z
2019-07-26T10:27:08Z,42.805,6.029,13.2952,4.59951,2469.867,2019-7-26T12:27:27Z
2019-07-26T10:30:11Z,42.805,6.029,13.2952,4.59951,2469.853,2019-7-26T12:30:30Z
2019-07-26T10:33:14Z,42.805,6.029,13.2949,4.59951,2469.83,2019-7-26T12:33:33Z
2019-07-26T10:36:17Z,42.805,6.029,13.2952,4.59952,2469.806,2019-7-26T12:36:37Z
2019-07-26T10:39:21Z,42.805,6.029,13.2954,4.59951,2469.853,2019-7-26T12:39:40Z
2019-07-26T10:42:24Z,42.805,6.029,13.2955,4.59951,2469.844,2019-7-26T12:42:43Z
2019-07-26T10:45:27Z,42.805,6.029,13.2957,4.59952,2469.853,2019-7-26T12:45:46Z
2019-07-26T10:48:30Z,42.805,6.029,13.2953,4.59951,2469.853,2019-7-26T12:48:49Z
2019-07-26T10:51:33Z,42.805,6.029,13.2956,4.59951,2469.853,2019-7-26T12:51:53Z
2019-07-26T10:54:37Z,42.805,6.029,13.2956,4.59951,2469.853,2019-7-26T12:54:56Z
2019-07-26T10:57:40Z,42.805,6.029,13.2953,4.59951,2469.867,2019-7-26T12:57:59Z
2019-07-26T11:00:43Z,42.805,6.029,13.2953,4.59952,2469.853,2019-7-26T13:01:02Z
2019-07-26T11:03:46Z,42.805,6.029,13.2955,4.59951,2469.844,2019-7-26T13:04:05Z
2019-07-26T11:06:49Z,42.805,6.029,13.2957,4.59951,2469.876,2019-7-26T13:07:08Z
2019-07-26T11:09:52Z,42.805,6.029,13.2952,4.59951,2469.853,2019-7-26T13:10:12Z
2019-07-26T11:12:56Z,42.805,6.029,13.2956,4.59951,2469.853,2019-7-26T13:13:15Z
2019-07-26T11:15:59Z,42.805,6.029,13.2956,4.59951,2469.89,2019-7-26T13:16:18Z
2019-07-26T11:19:02Z,42.805,6.029,13.2954,4.59951,2469.867,2019-7-26T13:19:21Z
2019-07-26T11:22:05Z,42.805,6.029,13.2953,4.59952,2469.876,2019-7-26T13:22:24Z
2019-07-26T11:25:08Z,42.805,6.029,13.2952,4.59951,2469.867,2019-7-26T13:25:28Z
2019-07-26T11:28:12Z,42.805,6.029,13.2955,4.59951,2469.844,2019-7-26T13:28:31Z
2019-07-26T11:31:15Z,42.805,6.029,13.2955,4.59952,2469.853,2019-7-26T13:31:34Z
2019-07-26T11:34:18Z,42.805,6.029,13.2955,4.59951,2469.876,2019-7-26T13:34:37Z
2019-07-26T11:37:21Z,42.805,6.029,13.2952,4.59951,2469.867,2019-7-26T13:37:40Z
2019-07-26T11:40:24Z,42.805,6.029,13.2956,4.59951,2469.853,2019-7-26T13:40:44Z
2019-07-26T11:43:28Z,42.805,6.029,13.2952,4.59951,2469.9,2019-7-26T13:43:47Z
2019-07-26T11:46:31Z,42.805,6.029,13.2958,4.59953,2469.83,2019-7-26T13:46:50Z
2019-07-26T11:49:34Z,42.805,6.029,13.2955,4.59950,2469.89,2019-7-26T13:49:53Z
2019-07-26T11:52:37Z,42.805,6.029,13.2952,4.59951,2469.876,2019-7-26T13:52:56Z
2019-07-26T11:55:40Z,42.805,6.029,13.2955,4.59951,2469.853,2019-7-26T13:56:00Z
2019-07-26T11:58:44Z,42.805,6.029,13.2957,4.59950,2469.876,2019-7-26T13:59:03Z
2019-07-26T12:01:47Z,42.805,6.029,13.2949,4.59951,2469.876,2019-7-26T14:02:06Z
2019-07-26T12:04:50Z,42.805,6.029,13.2955,4.59953,2469.876,2019-7-26T14:05:09Z
2019-07-26T12:07:53Z,42.805,6.029,13.2959,4.59951,2469.853,2019-7-26T14:08:12Z
2019-07-26T12:10:56Z,42.805,6.029,13.2957,4.59951,2469.876,2019-7-26T14:11:16Z
2019-07-26T12:14:00Z,42.805,6.029,13.2953,4.59951,2469.89,2019-7-26T14:14:19Z
2019-07-26T12:17:03Z,42.805,6.029,13.2955,4.59951,2469.9,2019-7-26T14:17:22Z
2019-07-26T12:20:06Z,42.805,6.029,13.2957,4.59950,2469.9,2019-7-26T14:20:25Z
2019-07-26T12:23:09Z,42.805,6.029,13.2954,4.59951,2469.914,2019-7-26T14:23:28Z
2019-07-26T12:26:12Z,42.805,6.029,13.2952,4.59951,2469.853,2019-7-26T14:26:32Z
2019-07-26T12:29:16Z,42.805,6.029,13.2950,4.59951,2469.853,2019-7-26T14:29:35Z
2019-07-26T12:32:19Z,42.805,6.029,13.2953,4.59950,2469.876,2019-7-26T14:32:38Z
2019-07-26T12:35:22Z,42.805,6.029,13.2953,4.59952,2469.876,2019-7-26T14:35:41Z
2019-07-26T12:38:25Z,42.805,6.029,13.2954,4.59951,2469.914,2019-7-26T14:38:44Z
2019-07-26T12:41:29Z,42.805,6.029,13.2951,4.59951,2469.867,2019-7-26T14:41:48Z
2019-07-26T12:44:32Z,42.805,6.029,13.2952,4.59951,2469.867,2019-7-26T14:44:51Z
2019-07-26T12:47:35Z,42.805,6.029,13.2956,4.59952,2469.923,2019-7-26T14:47:54Z
2019-07-26T12:50:38Z,42.805,6.029,13.2955,4.59953,2469.914,2019-7-26T14:50:57Z
2019-07-26T12:53:41Z,42.805,6.029,13.2952,4.59951,2469.876,2019-7-26T14:54:01Z
2019-07-26T12:56:44Z,42.805,6.029,13.2953,4.59952,2469.876,2019-7-26T14:57:04Z
2019-07-26T12:59:48Z,42.805,6.029,13.2952,4.59953,2469.876,2019-7-26T15:00:07Z
2019-07-26T13:02:51Z,42.805,6.029,13.2954,4.59953,2469.89,2019-7-26T15:03:10Z
2019-07-26T13:05:54Z,42.805,6.029,13.2951,4.59953,2469.914,2019-7-26T15:06:13Z
2019-07-26T13:08:57Z,42.805,6.029,13.2953,4.59952,2469.9,2019-7-26T15:09:16Z
2019-07-26T13:12:00Z,42.805,6.029,13.2952,4.59951,2469.876,2019-7-26T15:12:20Z
2019-07-26T13:15:04Z,42.805,6.029,13.2951,4.59951,2469.923,2019-7-26T15:15:23Z
2019-07-26T13:18:07Z,42.805,6.029,13.2951,4.59952,2469.876,2019-7-26T15:18:26Z
2019-07-26T13:21:10Z,42.805,6.029,13.2955,4.59952,2469.914,2019-7-26T15:21:29Z
2019-07-26T13:24:13Z,42.805,6.029,13.2953,4.59951,2469.9,2019-7-26T15:24:32Z
2019-07-26T13:27:17Z,42.805,6.029,13.2953,4.59952,2469.914,2019-7-26T15:27:36Z
2019-07-26T13:30:20Z,42.805,6.029,13.2953,4.59951,2469.9,2019-7-26T15:30:39Z
2019-07-26T13:33:23Z,42.805,6.029,13.2953,4.59951,2469.937,2019-7-26T15:33:42Z
2019-07-26T13:36:26Z,42.805,6.029,13.2952,4.59951,2469.923,2019-7-26T15:36:45Z
2019-07-26T13:39:29Z,42.805,6.029,13.2953,4.59951,2469.9,2019-7-26T15:39:49Z
2019-07-26T13:42:33Z,42.805,6.029,13.2952,4.59952,2469.923,2019-7-26T15:42:52Z
2019-07-26T13:45:36Z,42.805,6.029,13.2953,4.59951,2469.914,2019-7-26T15:45:55Z
2019-07-26T13:48:39Z,42.805,6.029,13.2952,4.59952,2469.9,2019-7-26T15:48:58Z
2019-07-26T13:51:42Z,42.805,6.029,13.2953,4.59952,2469.923,2019-7-26T15:52:01Z
2019-07-26T13:54:45Z,42.805,6.029,13.2953,4.59954,2469.923,2019-7-26T15:55:05Z
2019-07-26T13:57:49Z,42.805,6.029,13.2955,4.59952,2469.89,2019-7-26T15:58:08Z
2019-07-26T14:00:52Z,42.805,6.029,13.2954,4.59951,2469.937,2019-7-26T16:01:11Z
2019-07-26T14:03:55Z,42.805,6.029,13.2958,4.59952,2469.9,2019-7-26T16:04:14Z
2019-07-26T14:06:58Z,42.805,6.029,13.2953,4.59951,2469.923,2019-7-26T16:07:17Z
2019-07-26T14:10:01Z,42.805,6.029,13.2953,4.59951,2469.9,2019-7-26T16:10:21Z
2019-07-26T14:13:05Z,42.805,6.029,13.2954,4.59952,2469.9,2019-7-26T16:13:24Z
2019-07-26T14:16:08Z,42.805,6.029,13.2952,4.59953,2469.937,2019-7-26T16:16:28Z
2019-07-26T14:19:12Z,42.805,6.029,13.2952,4.59953,2469.9,2019-7-26T16:19:31Z
2019-07-26T14:22:15Z,42.805,6.029,13.2953,4.59954,2469.9,2019-7-26T16:22:34Z
2019-07-26T14:25:18Z,42.805,6.029,13.2956,4.59951,2469.9,2019-7-26T16:25:37Z
2019-07-26T14:28:21Z,42.805,6.029,13.2954,4.59953,2469.9,2019-7-26T16:28:40Z
2019-07-26T14:31:24Z,42.805,6.029,13.2953,4.59952,2469.914,2019-7-26T16:31:44Z
2019-07-26T14:34:28Z,42.805,6.029,13.2952,4.59952,2469.937,2019-7-26T16:34:47Z
2019-07-26T14:37:31Z,42.805,6.029,13.2957,4.59952,2469.867,2019-7-26T16:37:50Z
2019-07-26T14:40:34Z,42.805,6.029,13.2953,4.59953,2469.937,2019-7-26T16:40:53Z
2019-07-26T14:43:37Z,42.805,6.029,13.2951,4.59951,2469.9,2019-7-26T16:43:57Z
2019-07-26T14:46:41Z,42.805,6.029,13.2952,4.59951,2469.937,2019-7-26T16:47:00Z
2019-07-26T14:49:44Z,42.805,6.029,13.2952,4.59951,2469.923,2019-7-26T16:50:03Z
2019-07-26T14:52:47Z,42.805,6.029,13.2953,4.59953,2469.914,2019-7-26T16:53:06Z
2019-07-26T14:55:50Z,42.805,6.029,13.2955,4.59953,2469.914,2019-7-26T16:56:09Z
2019-07-26T14:58:53Z,42.805,6.029,13.2953,4.59952,2469.89,2019-7-26T16:59:13Z
2019-07-26T15:01:57Z,42.805,6.029,13.2956,4.59952,2469.923,2019-7-26T17:02:16Z
2019-07-26T15:05:00Z,42.805,6.029,13.2952,4.59952,2469.923,2019-7-26T17:05:19Z
2019-07-26T15:08:03Z,42.805,6.029,13.2953,4.59953,2469.914,2019-7-26T17:08:22Z
2019-07-26T15:11:06Z,42.805,6.029,13.2953,4.59952,2469.923,2019-7-26T17:11:25Z
2019-07-26T15:14:09Z,42.805,6.029,13.2953,4.59954,2469.876,2019-7-26T17:14:29Z